Regional Weather Roundup
Issued by NWS

Home | Current Version | Previous Version | Text Only | Print | Product List | Glossary Off
Versions: 1 2 3 4 5 6 7 8 9 10 11 12 13 14 15 16 17 18 19 20 21 22 23 24 25 26 27 28 29 30 31 32 33 34 35 36 37 38 39 40 41 42 43 44 45 46 47 48 49 50

324
ASUS43 KLOT 201304
RWRIL

ILLINOIS REGIONAL WEATHER ROUNDUP
NATIONAL WEATHER SERVICE CHICAGO/ROMEOVILLE IL
800 AM CDT FRI OCT 20 2017

NOTE: "FAIR" INDICATES FEW OR NO CLOUDS BELOW 12,000 FEET WITH NO
SIGNIFICANT WEATHER AND/OR OBSTRUCTIONS TO VISIBILITY.

* THESE STATIONS ARE NOT UNDER NWS QUALITY CONTROL. THEY ALSO MAY NOT
  REPORT WEATHER SUCH AS PRECIPITATION OR FOG.

ILZ001-002-007-009-015-016-024-201400-
NORTHWEST ILLINOIS

CITY           SKY/WX    TMP DP  RH WIND       PRES   REMARKS
MOLINE         CLOUDY    57  48  72 CALM      30.12S
STERLING*      CLEAR     53  49  86 CALM        N/A
SAVANNA*       CLEAR     49  48  97 S8        30.13R
$$

ILZ003-004-008-010-011-017-018-201400-
NORTH CENTRAL ILLINOIS

CITY           SKY/WX    TMP DP  RH WIND       PRES   REMARKS
ROCKFORD       MOCLDY    50  46  86 S5        30.16R
FREEPORT*      CLEAR     53  48  83 S9        30.15R
ROCHELLE*      CLEAR     49  47  94 S5        30.16R
DE KALB*       CLEAR     49  47  93 S9        30.17R
PERU*          CLEAR     52  48  88 S7        30.17S
$$

ILZ005-006-012>014-019>023-201400-
NORTHEAST ILLINOIS

CITY           SKY/WX    TMP DP  RH WIND       PRES   REMARKS
CHICAGO-OHARE  PTCLDY    54  48  80 S3        30.16S
CHICAGO-MIDWAY PTCLDY    57  50  77 S7        30.18R
AURORA         CLEAR     49  47  93 CALM      30.18R
LANSING*       CLEAR     53  50  89 S5        30.20R
JOLIET*        CLEAR     50  49  96 CALM      30.19R
WAUKEGAN       CLEAR     55  49  80 SW9       30.15R
DUPAGE AIRPORT CLEAR     51  49  92 S6        30.17R
KANKAKEE*      CLEAR     53  49  85 S5        30.21R
WHEELING       CLEAR     52  48  86 SE3       30.18R
MORRIS*        CLEAR     50  47  91 S3        30.18R
NORTHERLY ISL    N/A     59  48  67 S5          N/A
$$

LMZ740>746-201400-
SOUTHERN LAKE MICHIGAN

STATION/POSITION SKY/WX   TEMP    WIND        PRES    VSBY  WAVE
                          AIR SEA DIR/SP/G                  HT/PER
                          (F)     (DEG/KT/KT) (MB)    (MI)  (FT/S)
SOUTHERN BUOY              62 61  190/ 14/ 16 1021.2          2/ 4
WILMETTE HARBOR            59 58  210/ 12/ 16   N/A           2/ 3
HARRISON CRIB              62     200/ 19/ 21   N/A
BURNHAM HARBOR             59     240/  4/  9   N/A
CALUMET HARBOR             56     180/  6/  7 1021.2R
BURNS HARBOR               57     180/ 12/ 15 1022.7S
MICHIGAN CITY              57     150/ 13/ 15   N/A
MICHIGAN CITY 6N           57 58  190/ 12/ 14   N/A           1/ 2
ST. JOSEPH                 58 58  170/ 10/ 12 1023.0R         1/ 2
$$

ILZ025>027-034>036-040-047-049-050-058-095>099-201400-
WEST-CENTRAL ILLINOIS

CITY           SKY/WX    TMP DP  RH WIND       PRES   REMARKS
GALESBURG*     CLOUDY    58  56  90 S5        30.17R
MACOMB*        CLOUDY    53  49  85 S3        30.19R
JACKSONVILLE*  CLOUDY    56  49  77 S7        30.19S
PITTSFIELD*    CLEAR     53  50  90 S5        30.19S
$$

ILZ028>032-037-038-041>044-048-051>054-059>061-201400-
CENTRAL ILLINOIS

CITY           SKY/WX    TMP DP  RH WIND       PRES   REMARKS
PONTIAC        CLEAR     54  53  96 S5        30.20S
BLOOMINGTON    PTCLDY    53  50  89 S8        30.21R
DECATUR        CLEAR     53  49  86 S6        30.22S
PEORIA         CLOUDY    53  50  89 S5        30.19R
LACON*         CLEAR     55  50  83 S5        30.17R
LINCOLN*       CLOUDY    53  51  92 S5        30.20S
SPRINGFIELD    PTCLDY    57  51  80 S5        30.21R
TAYLORVILLE    CLOUDY    54  50  87 S3        30.22S
$$

ILZ033-039-045-046-055>057-062-063-201400-
EAST-CENTRAL ILLINOIS

CITY           SKY/WX    TMP DP  RH WIND       PRES   REMARKS
CHAMPAIGN      CLEAR     54  49  83 S7        30.23R
DANVILLE*      CLEAR     51  49  94 S3        30.22R
RANTOUL*       CLEAR     51  49  93 SE3       30.23R
MATTOON        CLEAR     56  52  86 S7        30.23R
PARIS*         CLEAR     52  50  93 SE5       30.26R
$$

ILZ079-100>102-201400-
SOUTHWEST ILLINOIS

CITY           SKY/WX    TMP DP  RH WIND       PRES   REMARKS
ALTON          PTCLDY    48  48 100 CALM      30.22S
BELLEVILLE     CLEAR     48  46  94 CALM      30.25R
CAHOKIA*       CLEAR     49  47  93 CALM      30.22R FOG
SPARTA*        CLEAR     50  49  97 SE6       30.24S
$$

ILZ064>066-069>071-074>076-080>082-084>086-088>090-092>094-201400-
SOUTH-CENTRAL ILLINOIS

CITY           SKY/WX    TMP DP  RH WIND       PRES   REMARKS
CARBONDALE     CLEAR     50  50 100 S3        30.24S
EFFINGHAM*     PTCLDY    51  51 100 SE3       30.26S
MARION         CLEAR     54  54 100 SE9       30.24F
MT. VERNON     PTCLDY    46  46 100 CALM      30.25S
CENTRALIA*     CLEAR     54  51  91 CALM      30.24R
SALEM*         PTCLDY    53  50  90 CALM      30.25R
METROPOLIS*    CLEAR     45  45  99 CALM      30.27R FOG
$$

ILZ067-068-072-073-078-083-087-091-201400-
SOUTHEAST ILLINOIS

CITY           SKY/WX    TMP DP  RH WIND       PRES   REMARKS
LAWRENCEVILLE  CLEAR     51  50  96 CALM      30.27R FOG
FLORA*         CLEAR     50  49  97 CALM      30.26S
FAIRFIELD*     CLEAR     51  50  99 CALM      30.25S
HARRISBURG*    FOG       46  46 100 CALM      30.27S VSB 1
ROBINSON*      PTCLDY    47  47 100 CALM      30.27S
CARMI*         CLEAR     47  47 100 SE3       30.27R FOG
$$

ABBREVIATIONS USED IN REMARKS
   TC - TEMPERATURE IN CELSIUS
  WCI - WIND CHILL INDEX
   HX - HEAT INDEX
  VSB - VISIBILITY
$$





USA.gov is the U.S. government's official web portal to all federal, state and local government web resources and services.